Weather History for Staples, MN

Change the Weather History Date:

Saturday, December 8, 2012

  Actual Average Record
Temperature  
Mean Temperature 22 °F -  
Max Temperature 26 °F 28 °F 41 °F (1999)
Min Temperature 17 °F 13 °F -22 °F (2013)
Degree Days  
Heating Degree Days 44    
Moisture  
Dew Point 19 °F    
Average Humidity 89    
Maximum Humidity 100    
Minimum Humidity 80    
Precipitation  
Precipitation 0.00 in - - ()
Sea Level Pressure  
Sea Level Pressure 29.99 in    
Wind  
Wind Speed 2 mph (ESE)    
Max Wind Speed 8 mph    
Max Gust Speed -    
Visibility 9 miles    
Events Snow    
Averages and records for this station are not official NWS values.
T = Trace of Precipitation, MM = Missing Value Source: NWS Daily Summary

Daily Weather History Graph

Daily Weather History Graph

Search for Another Location

Airport:

Trip Planner

Search our weather history database for the weather conditions in past years. The results will help you decide how hot, cold, wet, or windy it might be!

Date:

Astronomy

Dec. 08, 2012 Rise Set
Actual Time 7:50 AM CST 4:32 PM CST
Civil Twilight 7:15 AM CST 5:07 PM CST
Nautical Twilight 6:37 AM CST 5:45 PM CST
Astronomical Twilight 6:00 AM CST 6:21 PM CST
Moon 2:00 AM CST (12/8) 1:16 PM CST (12/8)
Length of Visible Light 9h 51m
Length of Day
8h 42m
Waning Crescent, 28% of the Moon is Illuminated
Dec 8
Waning Crescent
Dec 13
New
Dec 19
First Quarter
Dec 28
Full
Jan 4
Last Quarter

Hourly Weather History & Observations

Time (CST) Temp. Windchill Dew Point Humidity Pressure Visibility Wind Dir Wind Speed Gust Speed Precip Events Conditions
12:13 AM 17.6 °F - 14.0 °F 86% 30.03 in 5.0 mi Calm Calm - N/A Snow Light Snow
12:34 AM 17.6 °F - 14.0 °F 86% 30.02 in 10.0 mi Calm Calm - N/A   Overcast
12:53 AM 17.6 °F - 14.0 °F 86% 30.02 in 10.0 mi Calm Calm - N/A   Overcast
1:14 AM 17.6 °F 12.3 °F 14.0 °F 86% 30.02 in 10.0 mi ENE 3.5 mph - N/A   Overcast
1:33 AM 17.6 °F - 14.0 °F 86% 30.02 in 10.0 mi Calm Calm - N/A   Overcast
1:53 AM 17.6 °F - 14.0 °F 86% 30.02 in 10.0 mi Calm Calm - N/A   Overcast
2:13 AM 17.6 °F - 14.0 °F 86% 30.01 in 10.0 mi Calm Calm - N/A   Overcast
2:53 AM 17.6 °F - 15.8 °F 93% 30.02 in 10.0 mi Calm Calm - N/A   Overcast
3:13 AM 17.6 °F - 15.8 °F 93% 30.01 in 10.0 mi Calm Calm - N/A Snow Light Snow
3:34 AM 17.6 °F - 15.8 °F 93% 30.01 in 7.0 mi Calm Calm - N/A   Overcast
3:53 AM 17.6 °F - 15.8 °F 93% 30.01 in 10.0 mi Calm Calm - N/A   Overcast
4:13 AM 17.6 °F - 15.8 °F 93% 30.01 in 7.0 mi Calm Calm - N/A Snow Light Snow
4:34 AM 17.6 °F - 15.8 °F 93% 30.01 in 7.0 mi Calm Calm - N/A   Overcast
5:13 AM 17.6 °F - 15.8 °F 93% 30.00 in 5.0 mi Calm Calm - N/A Snow Light Snow
5:34 AM 17.6 °F 12.3 °F 15.8 °F 93% 30.00 in 7.0 mi ESE 3.5 mph - N/A   Overcast
5:53 AM 17.6 °F - 15.8 °F 93% 30.00 in 7.0 mi Calm Calm - N/A   Overcast
6:13 AM 17.6 °F 10.7 °F 15.8 °F 93% 30.00 in 7.0 mi SE 4.6 mph - N/A   Overcast
6:34 AM 17.6 °F 12.3 °F 15.8 °F 93% 30.00 in 7.0 mi ESE 3.5 mph - N/A   Overcast
6:53 AM 17.6 °F 9.3 °F 15.8 °F 93% 29.99 in 10.0 mi SE 5.8 mph - N/A   Overcast
7:13 AM 17.6 °F 8.2 °F 15.8 °F 93% 29.99 in 10.0 mi SE 6.9 mph - N/A   Overcast
7:34 AM 17.6 °F 10.7 °F 15.8 °F 93% 29.98 in 10.0 mi SE 4.6 mph - N/A   Overcast
7:53 AM 17.6 °F 8.2 °F 15.8 °F 93% 29.98 in 10.0 mi ESE 6.9 mph - N/A   Overcast
8:13 AM 17.6 °F 9.3 °F 15.8 °F 93% 29.98 in 10.0 mi SE 5.8 mph - N/A   Overcast
8:33 AM 19.4 °F 12.8 °F 17.6 °F 93% 29.99 in 10.0 mi SE 4.6 mph - N/A   Overcast
8:53 AM 19.4 °F 12.8 °F 17.6 °F 93% 29.99 in 10.0 mi SE 4.6 mph - N/A   Overcast
9:13 AM 19.4 °F 12.8 °F 17.6 °F 93% 30.00 in 10.0 mi SE 4.6 mph - N/A   Overcast
9:33 AM 19.4 °F 11.5 °F 17.6 °F 93% 30.00 in 10.0 mi SE 5.8 mph - N/A   Overcast
9:53 AM 19.4 °F 11.5 °F 17.6 °F 93% 30.00 in 10.0 mi SSE 5.8 mph - N/A   Overcast
10:13 AM 21.2 °F 12.6 °F 19.4 °F 93% 30.01 in 7.0 mi SE 6.9 mph - N/A   Overcast
10:33 AM 21.2 °F 11.7 °F 19.4 °F 93% 30.01 in 7.0 mi SSE 8.1 mph - N/A   Overcast
10:54 AM 23.0 °F 17.0 °F 19.4 °F 86% 30.01 in 7.0 mi South 4.6 mph - N/A   Overcast
11:13 AM 23.0 °F 17.0 °F 21.2 °F 93% 30.00 in 10.0 mi SSE 4.6 mph - N/A   Overcast
11:33 AM 23.0 °F 14.7 °F 21.2 °F 93% 30.00 in 10.0 mi South 6.9 mph - N/A   Overcast
11:54 AM 24.8 °F 16.9 °F 21.2 °F 86% 29.99 in 10.0 mi SSE 6.9 mph - N/A   Overcast
12:13 PM 24.8 °F 16.9 °F 21.2 °F 86% 29.98 in 10.0 mi SSE 6.9 mph - N/A   Overcast
12:33 PM 24.8 °F 17.9 °F 21.2 °F 86% 29.98 in 10.0 mi SSE 5.8 mph - N/A   Overcast
12:54 PM 24.8 °F 16.9 °F 21.2 °F 86% 29.98 in 10.0 mi SSE 6.9 mph - N/A   Overcast
1:13 PM 26.6 °F 20.0 °F 23.0 °F 86% 29.97 in 10.0 mi SSE 5.8 mph - N/A   Overcast
1:33 PM 26.6 °F 20.0 °F 23.0 °F 86% 29.96 in 10.0 mi SE 5.8 mph - N/A   Overcast
1:53 PM 26.6 °F 20.0 °F 21.2 °F 80% 29.95 in 10.0 mi SE 5.8 mph - N/A   Overcast
2:13 PM 26.6 °F 21.2 °F 23.0 °F 86% 29.95 in 10.0 mi East 4.6 mph - N/A   Overcast
2:34 PM 26.6 °F 22.6 °F 23.0 °F 86% 29.94 in 10.0 mi ESE 3.5 mph - N/A   Overcast
2:53 PM 26.6 °F 20.0 °F 21.2 °F 80% 29.94 in 10.0 mi East 5.8 mph - N/A   Mostly Cloudy
3:13 PM 26.6 °F 22.6 °F 21.2 °F 80% 29.95 in 10.0 mi ESE 3.5 mph - N/A   Mostly Cloudy
3:34 PM 26.6 °F 22.6 °F 21.2 °F 80% 29.95 in 10.0 mi SE 3.5 mph - N/A   Scattered Clouds
3:53 PM 26.6 °F - 21.2 °F 80% 29.95 in 10.0 mi Calm Calm - N/A   Scattered Clouds
4:13 PM 24.8 °F - 21.2 °F 86% 29.96 in 10.0 mi Calm Calm - N/A   Clear
4:34 PM 24.8 °F 20.5 °F 21.2 °F 86% 29.97 in 10.0 mi SE 3.5 mph - N/A   Scattered Clouds
5:13 PM 24.8 °F - 21.2 °F 86% 29.97 in 10.0 mi Calm Calm - N/A   Overcast
5:33 PM 24.8 °F - 21.2 °F 86% 29.97 in 10.0 mi Calm Calm - N/A   Overcast
5:53 PM 24.8 °F 20.5 °F 21.2 °F 86% 29.98 in 10.0 mi East 3.5 mph - N/A   Overcast
6:14 PM 24.8 °F 19.1 °F 21.2 °F 86% 29.98 in 10.0 mi ESE 4.6 mph - N/A   Mostly Cloudy
6:33 PM 24.8 °F - 21.2 °F 86% 29.97 in 10.0 mi Calm Calm - N/A   Scattered Clouds
6:53 PM 24.8 °F - 21.2 °F 86% 29.97 in 10.0 mi Calm Calm - N/A   Clear
7:14 PM 24.8 °F - 21.2 °F 86% 29.97 in 10.0 mi Calm Calm - N/A   Clear
7:33 PM 24.8 °F - 21.2 °F 86% 29.98 in 10.0 mi Calm Calm - N/A   Mostly Cloudy
7:53 PM 24.8 °F - 21.2 °F 86% 29.98 in 10.0 mi Calm Calm - N/A   Overcast
8:14 PM 24.8 °F - 21.2 °F 86% 29.98 in 10.0 mi Calm Calm - N/A   Scattered Clouds
8:33 PM 24.8 °F 20.5 °F 21.2 °F 86% 29.98 in 10.0 mi ENE 3.5 mph - N/A   Scattered Clouds
8:53 PM 24.8 °F 20.5 °F 21.2 °F 86% 29.98 in 10.0 mi East 3.5 mph - N/A   Mostly Cloudy
9:13 PM 24.8 °F 17.9 °F 21.2 °F 86% 29.98 in 10.0 mi East 5.8 mph - N/A   Mostly Cloudy
9:33 PM 24.8 °F 20.5 °F 21.2 °F 86% 29.98 in 10.0 mi East 3.5 mph - N/A   Overcast
9:54 PM 24.8 °F 19.1 °F 21.2 °F 86% 29.98 in 10.0 mi East 4.6 mph - N/A   Overcast
10:13 PM 26.6 °F 21.2 °F 21.2 °F 80% 29.98 in 10.0 mi East 4.6 mph - N/A   Overcast
10:33 PM 26.6 °F 21.2 °F 21.2 °F 80% 29.99 in 3.0 mi East 4.6 mph - N/A   Overcast
10:54 PM 24.8 °F 17.9 °F 23.0 °F 93% 29.99 in 1.8 mi East 5.8 mph - N/A   Overcast
11:13 PM 24.8 °F 17.9 °F 24.8 °F 100% 29.99 in 2.0 mi East 5.8 mph - N/A   Overcast
11:33 PM 24.8 °F 19.1 °F 24.8 °F 100% 29.99 in 1.5 mi East 4.6 mph - N/A   Overcast
11:54 PM 24.8 °F 17.9 °F 24.8 °F 100% 29.99 in 1.5 mi East 5.8 mph - N/A   Overcast